Location: Beadle
(51.4667°N, 109.0000°W)
Time: 11:35:25
(UTC+00:00)

Envisat - Pass Details

Date: 27 January 2022
Orbit: 764 x 765 km, 98.2° (Epoch: 22 May)

Event Time Altitude Azimuth Distance (km) Brightness Sun altitude
Rises 11:59:09 0° 17° (NNE) 3,244 6.5 -28.2°
Reaches altitude 10° 12:01:31 10° 21° (NNE) 2,313 5.8 -27.8°
Maximum altitude 12:06:32 58° 100° (E) 895 3.5 -27.0°
Drops below altitude 10° 12:11:31 10° 180° (S) 2,297 5.4 -26.2°
Sets 12:13:51 0° 184° (S) 3,219 6.2 -25.9°
